Wetbulb
56.39 56.43 56.35 56.30 56.53 56.74 57.10 57.20 57.25 57.46 57.44 57.46 57.43 57.40 57.69 58.39 57.78 55.71 47.47 53.42 56.29 74.17 75.76 72.59 71.01 68.92 70.00 67.19 67.78 66.09 54.53 51.74 55.48 56.31 58.53 63.59 61.98 65.06 66.15 63.54 64.73 65.34 64.49 66.07 69.24
56.18 56.01 55.88 55.75 55.94 56.20 56.34 56.52 56.82 56.86 56.92 56.85 57.00 57.21 57.53 58.18 53.94 50.39 58.53 66.47 71.22 76.73 72.02 68.28 67.28 67.80 65.04 65.50 63.93 58.15 52.09 54.42 57.84 59.91 59.34 63.12 63.11 63.07 62.58 61.85 63.01 63.58 66.55 68.02 69.00
55.97 55.86 55.64 55.62 55.67 55.90 55.98 56.07 55.92 56.07 56.22 56.41 56.76 56.91 57.19 57.37 46.62 46.25 68.04 67.36 74.98 76.00 72.11 70.82 69.72 66.55 62.05 63.28 62.68 58.77 55.70 58.26 59.42 60.29 63.34 63.09 63.00 64.55 62.43 59.29 62.28 61.79 64.52 66.71 67.47
55.89 55.72 55.50 55.72 55.79 55.81 55.83 55.83 55.79 55.74 55.80 55.98 56.53 56.92 57.15 53.34 40.67 52.03 73.24 69.30 76.08 73.17 70.76 66.93 67.86 62.23 57.68 55.67 63.41 57.14 60.00 61.63 60.53 60.80 62.22 62.49 64.15 62.60 62.54 61.66 65.18 65.20 66.08 66.83 66.52
55.94 55.67 55.51 55.37 55.49 55.62 55.69 55.58 55.65 55.31 55.51 55.90 56.15 56.65 52.26 46.48 45.73 64.06 74.18 69.76 73.54 66.51 65.60 62.43 63.77 59.80 52.00 54.10 58.58 58.99 60.57 60.25 61.85 60.47 63.31 64.27 62.67 62.61 62.58 65.34 65.98 65.84 66.18 66.35 66.74
56.18 56.10 56.12 55.88 55.97 55.96 56.24 55.93 55.73 54.86 55.35 55.96 56.25 56.17 47.75 37.05 48.31 52.64 65.22 64.85 66.37 62.57 61.75 56.98 61.24 57.00 50.90 48.93 53.44 56.15 60.10 60.24 58.07 58.79 62.21 62.07 62.37 62.84 63.72 65.52 64.64 64.86 64.92 66.02 66.69
56.12 56.00 55.81 55.85 55.78 55.87 55.84 55.39 54.75 54.78 55.49 56.54 56.65 54.04 50.36 42.14 50.14 51.04 62.62 61.36 63.55 59.30 54.78 55.47 55.39 55.72 50.62 47.70 51.95 52.51 50.30 53.26 57.12 57.91 60.22 63.38 59.08 60.19 64.22 65.32 63.64 63.90 64.79 65.67 66.42
55.49 55.47 55.74 55.68 55.54 55.20 54.79 54.23 54.54 55.60 57.06 57.74 57.53 52.53 42.05 52.66 54.05 52.90 50.89 53.64 60.82 57.83 53.79 56.17 55.17 51.80 48.93 49.98 50.07 45.87 45.61 43.18 48.76 57.14 59.76 61.19 55.07 61.59 64.22 63.93 63.09 63.72 64.26 64.97 65.83
55.35 55.39 55.21 55.13 54.66 54.20 53.26 54.08 55.41 58.75 59.01 58.56 52.06 49.07 43.00 57.47 54.45 53.91 50.84 49.54 54.75 54.70 54.05 58.88 54.14 48.89 48.26 45.08 42.16 42.17 40.30 42.71 46.93 55.05 55.72 58.43 51.95 58.98 63.82 63.22 63.34 63.78 64.14 64.98 65.32
54.76 54.76 54.59 54.31 53.79 52.89 52.70 53.86 54.39 57.83 57.10 56.85 56.36 46.94 50.09 49.19 54.80 55.75 51.38 52.46 50.83 51.65 52.38 51.42 48.57 44.91 42.34 41.70 38.01 39.69 39.45 41.75 45.21 48.36 53.22 52.72 52.19 56.95 62.63 62.54 63.04 63.61 64.06 64.71 65.14
54.59 54.32 54.12 53.53 52.82 52.03 50.20 44.40 42.59 42.21 42.94 48.82 48.26 48.74 51.09 52.52 54.58 53.73 52.31 50.72 50.50 48.51 44.46 47.57 43.56 41.86 43.26 43.47 44.95 44.57 42.60 43.43 45.97 50.20 51.73 50.49 51.80 58.12 61.50 62.23 62.23 62.97 63.55 64.20 64.88
54.12 53.79 53.30 52.76 51.93 51.76 44.83 42.68 42.28 41.87 36.89 45.21 44.96 46.34 51.52 49.84 48.31 50.63 52.00 47.16 46.29 43.43 45.58 41.85 42.82 46.43 47.99 46.43 45.88 44.05 42.84 43.03 45.24 48.55 46.79 46.64 51.46 58.87 60.94 61.60 62.70 63.24 63.49 64.24 65.05
53.81 53.44 52.80 51.98 51.48 45.41 42.36 42.55 45.44 42.33 35.02 41.52 44.66 45.42 46.22 48.45 46.29 47.71 50.26 47.44 45.03 43.29 44.84 44.31 43.26 48.65 47.36 44.93 44.44 41.72 42.81 42.71 43.51 46.50 47.55 50.35 48.14 54.95 60.24 61.59 62.69 63.20 64.61 65.15 65.20
53.40 53.26 52.29 51.11 43.44 43.29 41.22 44.05 45.07 44.31 31.91 39.12 40.85 44.47 47.05 47.11 43.87 51.74 52.26 49.45 45.67 45.14 43.09 42.37 47.47 47.54 44.34 44.64 45.26 38.15 45.51 46.44 45.28 42.49 39.30 49.08 40.13 49.06 57.40 58.87 60.59 61.48 62.03 63.45 64.69
53.34 52.86 51.40 50.65 41.96 40.55 43.04 45.75 45.97 38.34 29.57 46.24 41.56 47.50 46.12 44.60 44.86 47.15 53.36 48.91 44.63 44.68 44.12 42.83 44.17 44.81 44.40 45.93 46.48 43.72 47.58 45.52 44.92 41.58 38.55 42.47 42.18 45.78 54.86 55.90 58.35 60.88 62.24 63.32 64.32
53.07 52.21 51.14 45.65 41.99 43.56 45.08 44.24 39.20 34.06 28.59 42.44 44.84 41.70 41.73 42.53 43.52 48.58 48.91 50.18 49.31 45.48 44.23 44.68 46.87 47.81 46.09 47.16 47.57 47.99 44.66 41.83 39.98 38.78 34.95 40.67 41.87 39.91 48.15 55.92 58.91 61.18 62.66 63.93 64.51
51.92 50.61 49.12 47.92 39.78 44.23 44.23 39.15 31.02 27.84 41.24 40.22 39.31 41.93 41.34 39.84 41.51 44.87 44.75 45.33 43.56 38.22 39.40 42.61 44.63 45.29 46.75 43.70 44.78 44.93 39.72 32.74 31.77 32.53 36.26 39.70 40.11 44.57 50.31 55.99 59.23 60.61 61.97 63.55 64.96
50.26 49.02 45.85 46.58 45.43 43.73 39.67 33.89 24.30 36.13 35.28 41.96 41.27 41.80 39.27 40.37 39.75 41.74 42.37 43.70 44.93 42.55 40.19 38.51 36.44 44.42 46.23 44.00 41.98 41.84 39.18 32.61 28.28 29.45 35.15 38.42 37.29 42.33 50.46 56.84 58.67 60.83 62.26 62.78 63.70
49.69 42.33 41.09 42.93 45.71 42.06 35.09 25.55 27.59 32.69 39.52 38.77 39.15 37.10 36.16 39.91 40.10 39.96 38.29 42.86 45.57 42.26 39.61 37.94 38.89 46.56 46.90 47.16 46.84 39.82 39.61 41.68 33.98 32.69 32.21 36.02 40.82 47.45 50.56 51.54 56.87 58.08 59.34 59.93 61.67
43.09 41.44 38.59 44.78 42.70 39.44 33.04 28.54 31.55 39.19 40.39 39.11 33.05 37.04 32.68 35.68 36.87 36.49 37.43 42.01 42.39 45.61 42.64 40.22 36.90 44.28 46.72 47.61 46.70 43.07 43.49 37.42 31.98 30.02 28.35 33.22 36.32 40.68 46.81 49.60 52.31 54.14 57.57 59.68 60.71
37.64 33.69 39.63 43.72 41.05 35.40 26.39 29.40 35.31 40.86 41.52 36.68 35.05 34.42 34.13 35.08 35.79 35.30 36.59 41.44 44.13 43.89 44.31 38.69 38.12 39.24 44.39 43.36 43.97 40.04 38.94 36.16 39.04 33.93 31.94 29.49 35.56 43.75 47.65 50.00 51.36 53.50 56.73 59.20 60.50
33.86 29.09 39.95 41.07 31.22 30.53 31.26 33.85 40.19 39.05 40.29 38.68 38.57 36.78 35.39 37.12 35.39 35.58 37.01 40.00 45.07 43.58 40.22 41.10 33.39 36.29 39.30 44.13 47.80 47.87 42.10 37.43 35.11 32.92 34.59 33.17 37.14 46.01 47.88 50.93 52.21 53.03 55.49 58.43 60.66
34.19 35.24 40.21 39.55 26.22 27.56 31.84 35.01 38.20 37.80 37.46 36.71 36.10 39.01 38.61 35.11 31.95 37.15 39.28 43.37 43.37 42.22 41.31 41.10 33.59 30.69 35.00 41.12 42.21 41.63 43.40 42.87 41.03 35.25 36.46 34.59 37.43 46.80 46.89 48.66 50.04 52.36 54.69 57.81 60.06
33.41 30.09 32.77 37.42 32.71 30.27 29.44 30.49 32.92 39.64 38.65 38.61 37.74 39.01 36.20 34.24 36.37 34.61 36.97 41.87 43.02 43.74 48.24 42.03 33.14 32.03 31.69 34.47 38.62 37.22 42.05 42.68 42.62 39.85 39.76 39.98 40.07 43.39 45.59 46.98 49.03 50.59 53.22 54.98 57.18
35.39 32.15 36.33 27.35 30.12 33.98 30.69 31.63 31.90 31.99 37.26 39.16 36.68 35.47 33.29 29.10 32.39 32.92 36.27 37.03 40.70 44.22 40.16 36.92 31.99 33.56 36.21 39.23 40.78 40.77 41.17 42.31 40.86 42.65 40.05 42.54 42.30 43.52 45.57 46.93 49.17 49.82 53.23 55.98 57.70
36.60 36.36 37.98 33.36 36.63 34.00 32.52 28.71 31.54 32.43 33.51 33.18 35.41 35.51 33.54 29.98 32.37 30.44 33.00 32.37 33.46 37.97 35.47 34.85 31.53 33.66 34.29 40.32 40.62 38.63 41.50 42.91 43.09 42.88 42.72 43.99 41.88 46.25 48.48 48.00 48.86 50.59 52.35 54.75 56.59
43.15 43.78 39.04 35.91 32.19 31.81 31.35 32.23 32.43 33.71 35.79 38.15 36.48 34.09 32.34 35.78 37.25 37.39 37.15 36.41 36.13 33.49 32.90 32.45 31.44 31.44 29.15 37.06 37.47 35.72 40.83 42.73 43.19 44.32 43.84 41.34 44.90 47.22 46.31 46.61 48.47 49.95 50.17 51.66 54.80
MSLP
1018.16 1017.73 1017.23 1016.73 1016.28 1015.80 1015.37 1014.98 1014.58 1014.07 1013.66 1013.21 1012.77 1012.35 1011.90 1011.49 1010.83 1010.41 1009.14 1006.41 1006.56 1006.68 1007.18 1007.82 1008.34 1008.53 1009.15 1009.72 1009.75 1009.90 1010.42 1009.77 1008.39 1007.70 1007.26 1007.12 1007.61 1008.41 1008.69 1009.39 1009.73 1010.27 1010.78 1011.37 1012.76
1018.26 1017.81 1017.33 1016.78 1016.19 1015.67 1015.17 1014.74 1014.32 1013.91 1013.41 1012.99 1012.57 1012.25 1011.82 1011.48 1010.95 1009.10 1004.95 1005.13 1005.57 1006.14 1007.02 1007.53 1008.09 1008.62 1009.51 1009.65 1009.91 1010.09 1010.01 1008.64 1007.31 1006.72 1006.59 1006.70 1007.30 1008.14 1008.90 1009.38 1009.76 1010.22 1010.79 1011.94 1012.77
1018.26 1017.75 1017.25 1016.70 1016.11 1015.50 1014.93 1014.38 1013.93 1013.56 1013.19 1012.75 1012.36 1012.05 1011.77 1011.50 1010.49 1005.82 1003.75 1004.51 1005.08 1005.57 1006.28 1007.21 1008.12 1008.70 1009.30 1009.49 1009.62 1009.52 1008.65 1007.38 1006.38 1005.69 1006.16 1006.33 1007.09 1007.60 1008.43 1009.25 1008.95 1009.70 1010.85 1012.00 1012.87
1018.23 1017.67 1017.11 1016.54 1015.90 1015.25 1014.63 1013.99 1013.44 1013.04 1012.76 1012.47 1012.13 1011.89 1011.59 1011.46 1008.50 1004.22 1003.57 1004.19 1004.90 1005.43 1006.46 1007.32 1008.06 1008.65 1008.88 1008.86 1008.64 1008.70 1007.16 1006.99 1005.97 1005.44 1005.86 1006.26 1006.65 1007.19 1007.60 1007.98 1008.16 1009.33 1009.74 1011.28 1012.61
1018.06 1017.46 1016.86 1016.24 1015.57 1014.90 1014.23 1013.62 1013.00 1012.38 1012.00 1011.90 1011.82 1011.71 1011.51 1010.43 1006.38 1004.04 1003.85 1004.55 1005.51 1005.83 1005.85 1006.64 1007.50 1007.87 1008.09 1008.01 1008.06 1007.83 1006.11 1006.13 1005.51 1005.05 1005.16 1006.08 1006.23 1006.52 1007.29 1007.56 1008.25 1009.70 1010.38 1011.13 1012.20
1017.85 1017.20 1016.58 1015.82 1015.02 1014.16 1013.38 1012.89 1012.35 1011.76 1011.21 1011.16 1011.31 1011.56 1011.37 1008.86 1003.97 1003.68 1003.91 1004.62 1004.84 1005.78 1006.21 1006.29 1006.45 1006.82 1007.22 1007.25 1007.22 1006.27 1005.89 1005.47 1005.19 1004.85 1005.06 1005.69 1006.45 1006.80 1007.01 1007.71 1008.57 1009.73 1010.61 1011.07 1011.56
1017.81 1017.01 1016.20 1015.39 1014.53 1013.45 1012.40 1011.63 1011.27 1010.74 1010.18 1010.01 1010.47 1011.03 1010.23 1005.59 1003.56 1003.81 1004.20 1004.47 1004.39 1005.11 1005.75 1005.78 1005.78 1006.45 1006.48 1006.57 1006.14 1005.91 1005.64 1005.07 1004.70 1004.47 1004.83 1005.41 1006.56 1006.38 1006.78 1007.74 1008.77 1009.65 1010.71 1011.27 1011.43
1017.60 1016.81 1015.94 1015.02 1014.10 1012.92 1011.63 1010.46 1009.87 1009.14 1008.66 1008.81 1009.66 1010.31 1007.93 1003.87 1003.61 1004.00 1004.04 1004.43 1004.75 1005.15 1005.25 1005.03 1005.68 1006.21 1006.45 1006.30 1005.98 1005.93 1005.75 1005.31 1004.52 1004.13 1004.22 1004.98 1005.65 1005.66 1006.35 1007.39 1008.68 1009.37 1010.21 1010.95 1011.29
1017.39 1016.50 1015.60 1014.64 1013.59 1012.33 1010.99 1009.61 1008.96 1008.38 1008.20 1008.75 1009.73 1009.61 1005.81 1003.34 1003.47 1002.88 1003.27 1003.95 1004.71 1005.38 1005.59 1005.41 1006.08 1006.53 1006.76 1007.00 1007.27 1006.84 1006.06 1005.41 1004.70 1004.13 1004.07 1004.92 1005.04 1004.89 1005.73 1006.75 1007.93 1009.04 1009.47 1010.27 1010.97
1017.25 1016.40 1015.36 1014.41 1013.30 1012.04 1010.35 1009.36 1009.11 1008.90 1009.26 1009.18 1008.99 1009.07 1004.55 1002.65 1002.10 1002.24 1002.82 1003.27 1004.44 1005.21 1005.82 1005.86 1006.35 1006.69 1007.00 1007.22 1006.72 1006.90 1006.42 1005.37 1004.57 1003.98 1004.12 1004.80 1004.54 1004.54 1005.04 1006.02 1006.90 1008.00 1008.87 1009.54 1010.04
1017.00 1016.15 1015.20 1014.02 1013.16 1012.02 1010.43 1009.64 1009.82 1009.59 1009.16 1007.73 1006.85 1005.45 1003.31 1001.84 1001.48 1001.80 1002.33 1003.01 1003.95 1004.81 1005.54 1005.94 1006.67 1006.01 1006.51 1006.44 1006.49 1006.41 1005.91 1005.23 1004.52 1003.87 1004.19 1004.53 1004.83 1004.83 1005.40 1006.08 1006.58 1007.11 1007.89 1008.54 1008.76
1016.91 1015.99 1015.19 1013.83 1012.83 1011.75 1010.98 1011.38 1012.51 1012.91 1010.23 1006.68 1005.15 1004.50 1002.94 1002.50 1002.15 1001.44 1001.58 1002.42 1003.29 1004.08 1004.83 1005.98 1005.02 1005.71 1006.18 1006.27 1006.21 1006.18 1005.88 1005.20 1004.75 1004.11 1004.30 1004.39 1004.75 1004.73 1005.03 1004.69 1004.88 1005.85 1007.05 1007.28 1007.89
1016.84 1015.81 1015.14 1014.14 1012.54 1012.34 1012.66 1012.14 1012.31 1012.23 1011.14 1005.17 1003.36 1002.22 1001.73 1002.29 1001.89 1000.82 1000.86 1001.36 1002.05 1003.20 1003.59 1003.85 1003.96 1004.87 1005.41 1005.57 1005.84 1005.63 1005.28 1005.23 1005.03 1004.51 1004.39 1004.76 1004.89 1005.07 1005.02 1005.10 1005.68 1005.86 1005.81 1006.84 1007.23
1016.81 1015.86 1015.36 1014.39 1012.81 1013.51 1012.43 1012.09 1012.04 1012.02 1010.12 1004.42 1002.00 1000.40 1000.37 1000.83 1000.86 999.59 999.68 1000.00 1001.09 1001.82 1003.10 1003.70 1003.41 1003.72 1004.29 1004.57 1004.74 1004.99 1004.60 1005.06 1005.33 1005.52 1005.56 1005.14 1005.41 1005.17 1004.78 1004.81 1004.79 1005.08 1005.41 1005.48 1006.13
1016.69 1015.92 1015.60 1015.16 1015.01 1014.15 1012.26 1011.85 1011.67 1011.69 1008.38 1002.09 1000.76 999.61 999.69 999.89 999.23 998.96 998.60 999.35 999.83 1000.51 1001.78 1001.72 1002.02 1002.80 1003.08 1002.83 1003.96 1004.03 1004.27 1004.89 1005.47 1005.99 1006.04 1005.65 1006.03 1004.49 1004.42 1004.66 1004.26 1004.01 1004.04 1004.24 1004.73
1016.43 1015.79 1015.55 1015.00 1014.95 1013.32 1012.63 1011.99 1011.60 1011.02 1006.03 1001.53 1000.35 1000.10 1000.29 999.85 999.12 998.93 998.92 998.99 999.39 1000.46 1000.83 1001.20 1001.10 1001.57 1001.53 1002.37 1002.98 1003.70 1004.56 1005.59 1006.33 1006.68 1006.28 1005.60 1005.65 1004.23 1003.79 1002.86 1002.91 1003.08 1003.19 1003.21 1003.84
1016.25 1015.74 1015.01 1014.78 1014.18 1012.83 1012.54 1012.06 1011.62 1009.11 1004.24 1003.06 1002.01 1001.57 1001.18 1000.40 999.63 999.27 999.41 998.94 998.67 1000.09 1000.60 1001.08 1000.92 1000.60 1000.65 1001.98 1002.75 1003.53 1005.09 1006.84 1007.56 1007.26 1004.96 1004.53 1004.94 1002.45 1001.42 1000.86 1000.81 1001.14 1001.35 1001.65 1002.40
1016.22 1015.42 1014.78 1014.19 1013.29 1013.05 1012.97 1012.59 1010.97 1007.42 1005.73 1004.45 1003.33 1002.52 1002.18 1001.67 1001.01 1000.18 999.65 999.70 999.46 999.59 1000.45 1000.91 1000.87 1000.09 1000.00 1000.14 1001.43 1002.94 1004.50 1006.09 1006.67 1006.54 1005.55 1004.87 1002.69 1000.67 1000.08 999.86 999.77 999.70 999.61 1000.67 1001.61
1016.32 1015.60 1014.91 1013.74 1013.30 1013.25 1013.41 1012.77 1010.32 1008.63 1007.42 1006.01 1004.46 1003.87 1003.65 1002.97 1002.51 1001.51 1001.11 1000.85 1000.37 1000.07 1000.58 1000.88 1000.26 998.79 998.75 999.31 1000.37 1002.56 1003.39 1004.15 1005.81 1006.34 1005.72 1003.94 1001.64 1000.25 999.45 999.33 999.15 998.90 999.32 999.57 1000.04
1017.28 1016.76 1015.24 1013.82 1013.29 1013.47 1013.90 1013.00 1011.01 1009.38 1008.27 1007.11 1006.37 1005.60 1005.23 1004.63 1003.78 1003.30 1002.85 1003.67 1002.27 1001.49 1001.23 1000.62 1000.52 999.08 998.57 999.17 999.81 1000.33 1001.97 1004.11 1005.28 1006.03 1005.60 1003.47 1001.82 999.79 999.17 998.77 998.57 998.59 998.43 998.26 998.77
1017.80 1017.21 1014.50 1013.85 1013.68 1014.19 1014.63 1013.85 1012.00 1010.48 1009.51 1008.60 1007.66 1007.22 1006.63 1006.17 1005.57 1005.06 1004.81 1004.85 1003.98 1003.00 1002.40 1002.04 1001.38 1000.23 999.08 998.55 998.62 1000.15 1000.99 1002.31 1003.38 1004.32 1004.09 1003.46 1000.38 998.54 998.17 997.62 997.29 997.16 997.14 997.20 997.56
1018.76 1017.89 1014.80 1014.24 1015.19 1015.78 1015.44 1014.63 1013.29 1011.52 1010.45 1009.38 1008.44 1008.06 1007.78 1007.36 1006.85 1006.33 1006.07 1006.02 1005.55 1004.75 1004.38 1004.15 1003.34 1001.86 1000.05 998.77 998.39 998.78 999.75 1000.95 1002.11 1003.01 1002.73 1002.13 998.99 997.29 996.49 996.25 996.56 996.44 996.33 996.28 996.54
1019.28 1018.55 1015.66 1015.29 1016.71 1016.91 1016.06 1014.67 1013.72 1012.80 1011.96 1010.81 1009.72 1009.21 1008.82 1008.60 1008.32 1007.64 1007.23 1006.96 1006.51 1005.97 1005.97 1005.33 1004.85 1003.61 1001.63 1000.06 999.00 999.20 999.48 999.75 1000.15 1000.84 1000.53 1000.72 997.90 996.93 996.47 996.73 996.48 996.55 996.07 996.00 995.90
1019.59 1019.21 1017.94 1017.28 1017.72 1017.64 1016.89 1015.37 1014.11 1013.28 1012.78 1012.59 1011.19 1010.28 1010.23 1009.89 1009.41 1009.02 1008.38 1007.80 1007.46 1007.09 1006.80 1006.40 1006.20 1005.40 1003.99 1002.97 1002.18 1000.84 999.57 999.21 999.23 999.33 999.28 997.84 997.93 997.21 996.97 996.73 996.43 996.13 995.88 995.56 995.64
1019.72 1019.59 1019.18 1018.72 1018.09 1017.97 1017.34 1016.04 1014.97 1014.11 1013.51 1013.24 1012.52 1012.07 1012.12 1011.37 1010.66 1010.29 1009.63 1009.10 1008.39 1008.09 1007.92 1007.78 1007.64 1006.72 1005.63 1003.98 1002.95 1001.62 1000.34 999.44 998.82 998.15 997.34 997.76 997.05 997.28 997.00 996.41 996.04 995.26 995.55 995.87 995.70
1019.80 1019.49 1019.27 1018.83 1018.31 1017.85 1017.11 1016.22 1015.50 1014.95 1014.55 1013.61 1013.36 1013.14 1012.50 1012.21 1011.57 1011.41 1011.18 1010.70 1010.03 1009.41 1009.18 1009.07 1008.65 1007.78 1006.48 1004.59 1002.70 1001.39 999.98 999.00 998.27 997.90 997.12 996.65 996.01 995.47 995.36 995.24 995.41 995.12 995.08 995.18 995.21
1019.30 1019.27 1019.29 1018.62 1018.13 1017.73 1017.00 1016.44 1015.81 1015.37 1014.40 1014.00 1013.95 1013.51 1012.77 1012.18 1012.04 1011.71 1011.52 1011.20 1010.88 1010.79 1010.53 1010.34 1009.44 1008.50 1006.85 1005.22 1003.57 1000.33 998.48 997.74 997.18 996.60 996.16 995.43 995.54 995.29 994.56 994.51 994.76 994.50 994.52 994.75 994.43
Wind_Speed
22 22 22 22 22 22 21 21 20 20 19 19 19 19 19 17 16 2 9 14 11 19 16 13 6 9 7 2 2 1 4 4 4 6 4 9 5 5 5 11 4 5 6 11 19
22 22 22 22 23 23 22 21 21 20 20 19 19 18 17 15 4 9 14 14 17 24 16 17 11 14 3 5 3 3 3 8 6 5 6 11 7 10 4 10 2 6 13 19 19
22 23 23 23 23 23 23 23 22 21 20 19 18 17 15 10 5 10 4 19 25 26 15 15 15 8 3 3 6 6 7 5 4 5 9 13 9 7 10 8 7 17 22 21 20
23 23 23 23 23 24 23 23 24 22 20 18 17 15 14 2 6 3 4 19 25 18 15 11 14 7 6 7 7 4 12 6 7 4 8 13 10 8 13 4 8 19 27 25 21
23 24 24 24 24 24 24 24 23 24 22 18 14 11 4 2 14 5 12 19 18 11 19 12 19 6 8 6 6 7 10 6 10 6 12 9 15 13 14 4 16 18 22 23 19
23 23 24 24 25 26 25 23 22 23 22 18 12 6 3 7 6 5 10 19 20 14 12 8 14 8 4 4 8 4 12 15 7 9 9 13 8 6 10 12 17 20 20 20 21
23 24 25 26 27 28 29 28 26 24 23 19 12 7 3 17 4 6 9 8 17 16 11 6 6 10 5 3 6 5 6 3 8 8 7 7 3 13 5 15 18 20 17 17 18
24 25 26 27 27 30 31 31 28 22 14 8 15 7 10 4 3 4 5 3 12 5 1 6 5 5 3 3 8 3 1 1 1 8 6 14 13 17 15 19 18 20 17 17 17
24 25 26 28 30 31 33 30 16 7 12 20 10 4 11 1 4 7 10 7 9 3 1 4 6 4 2 2 5 5 4 5 5 10 5 10 7 16 19 20 19 18 18 17 16
24 25 27 27 30 32 33 23 5 8 9 5 5 1 5 5 4 5 5 14 6 8 4 4 3 5 3 7 12 6 4 4 5 2 4 9 13 5 21 22 22 20 18 19 18
26 26 28 30 29 32 17 4 7 3 4 8 4 6 5 4 2 5 7 9 8 5 10 6 5 14 10 5 5 5 4 4 2 2 4 8 6 9 16 16 19 20 20 19 21
26 27 27 31 32 24 6 7 7 3 15 14 21 18 17 4 5 4 12 9 8 7 9 5 18 10 9 7 8 5 5 8 4 6 2 4 8 10 17 24 24 23 20 22 18
26 27 27 29 32 5 4 5 3 2 5 11 8 8 8 14 12 9 15 7 7 9 17 19 6 12 12 7 10 5 13 6 5 4 2 4 6 7 12 2 12 15 18 17 18
26 27 27 30 6 6 5 2 5 3 4 10 6 8 5 9 7 11 16 10 5 21 9 6 8 18 9 13 12 9 6 6 7 4 4 3 6 5 13 20 16 15 17 18 19
27 26 25 15 4 5 7 12 11 2 7 0 2 1 5 7 1 8 7 3 11 9 11 12 15 15 17 13 10 8 8 9 6 6 2 3 1 8 10 14 17 18 20 21 21
27 28 26 1 2 7 10 12 2 4 12 3 4 1 4 4 3 4 6 1 6 6 1 8 5 14 11 8 11 8 4 6 6 5 7 10 10 6 9 20 20 17 19 21 21
28 27 19 2 5 4 7 5 3 7 7 5 4 5 5 4 2 5 10 14 12 9 11 5 13 3 6 9 4 8 8 2 2 3 11 8 8 14 10 16 22 25 25 24 23
27 24 7 4 7 4 4 5 5 2 4 5 5 8 2 7 3 7 9 16 6 5 8 11 6 18 6 11 12 10 10 8 9 5 7 7 11 8 12 11 18 20 24 21 20
23 5 6 4 6 2 6 1 5 3 7 9 8 5 5 5 4 5 4 7 7 3 8 9 11 3 9 6 17 7 12 11 5 2 2 6 6 6 5 11 14 19 17 19 21
6 6 6 6 4 4 5 5 5 6 12 6 4 5 5 7 6 7 6 8 11 6 5 4 1 6 18 6 8 12 9 5 1 7 6 5 4 7 10 13 14 9 16 19 19
4 5 5 10 3 5 3 5 7 12 13 6 6 7 4 4 4 5 6 5 11 10 8 5 4 4 9 12 18 4 6 3 6 7 7 0 8 9 10 14 18 19 18 18 18
3 4 4 7 6 2 4 10 10 12 9 6 4 3 3 5 4 5 5 5 10 8 5 1 3 7 6 2 9 20 9 8 8 9 6 5 9 4 9 11 14 15 14 12 13
3 4 5 4 5 4 6 5 4 10 9 8 5 5 4 3 4 4 4 5 13 10 5 6 2 2 5 8 3 5 10 12 9 4 13 9 7 6 4 7 9 10 9 9 12
3 6 5 4 2 4 6 6 6 8 5 10 10 6 6 6 5 4 6 4 7 5 9 3 2 4 3 3 4 7 8 8 17 15 14 18 9 3 6 9 10 10 10 10 9
2 1 0 5 4 7 5 5 7 7 4 5 5 13 7 3 4 3 5 5 6 7 5 4 0 2 3 10 7 12 16 14 13 21 16 12 18 10 9 12 16 12 7 7 10
1 2 1 5 6 7 6 5 5 9 3 8 4 13 13 4 2 2 6 2 4 6 6 5 3 2 4 9 10 11 15 16 15 10 12 17 9 10 15 10 7 11 9 10 10
2 2 1 2 3 3 2 3 10 8 9 6 8 12 9 3 4 9 9 9 8 2 2 3 2 2 5 4 10 17 10 15 9 9 9 17 10 7 9 10 14 14 10 12 11
Wind_Direction
353 351 347 344 341 339 336 333 331 328 326 324 324 324 325 326 320 180 239 213 182 156 142 139 181 148 139 144 106 90 76 280 264 186 212 143 120 140 92 136 176 173 137 143 150
351 348 345 341 338 335 332 329 326 323 321 320 319 322 323 329 306 254 241 187 164 154 150 160 171 151 163 172 153 121 155 219 232 211 176 161 130 144 112 156 179 99 110 137 149
347 344 340 338 335 332 329 325 322 319 315 313 313 316 321 330 305 245 274 183 168 162 153 154 143 141 161 145 183 184 216 223 277 209 163 162 158 152 140 208 200 159 146 153 155
343 340 337 334 331 328 324 320 316 312 308 306 305 310 314 273 265 127 294 168 167 159 144 150 161 164 186 195 180 218 239 251 290 219 160 188 149 180 173 215 175 162 153 155 167
338 335 333 331 326 322 318 313 310 307 303 299 294 301 325 222 247 187 96 148 162 175 166 167 167 169 176 195 156 238 248 171 231 164 184 143 196 173 205 101 131 149 157 161 168
334 332 330 328 325 321 315 311 306 302 296 287 277 258 206 236 232 225 140 152 166 178 187 158 185 176 191 203 184 211 252 258 243 241 171 169 198 151 192 132 137 156 171 171 175
334 332 329 327 326 321 316 313 309 301 288 274 236 188 216 232 148 72 147 165 164 180 166 208 173 182 171 289 239 265 277 250 196 213 190 135 160 222 147 146 155 167 178 181 186
335 332 329 327 325 322 319 314 312 304 281 215 176 175 240 227 277 266 208 108 169 186 295 204 127 140 174 297 354 320 94 75 217 180 202 148 218 220 164 159 169 175 181 191 196
336 333 330 328 327 324 322 318 331 23 100 127 131 196 260 263 196 197 166 171 137 181 356 139 112 198 109 117 355 340 230 196 306 189 134 168 235 217 171 171 173 184 184 193 197
337 335 331 331 329 326 323 318 287 88 114 190 113 317 249 214 196 151 178 146 158 135 91 159 127 166 154 156 208 202 209 240 230 208 151 196 248 193 176 176 179 184 187 193 200
337 336 334 331 331 329 330 8 8 360 346 221 203 276 292 270 258 169 158 137 117 130 159 187 169 214 198 185 160 189 205 215 235 233 158 217 239 195 180 184 185 187 187 195 208
335 333 334 330 329 326 335 72 94 240 298 246 245 249 256 32 344 225 136 142 157 175 126 116 220 199 178 195 184 188 228 254 304 264 164 254 233 188 182 197 193 185 191 197 204
332 330 335 336 324 28 319 102 97 292 238 281 211 230 200 162 217 232 163 152 152 150 186 200 221 167 183 179 193 206 215 184 205 343 277 105 310 169 213 214 204 203 197 204 204
328 328 338 339 36 326 293 18 342 211 312 270 242 259 133 135 235 201 186 147 173 193 130 207 220 188 165 203 178 214 176 155 164 126 217 139 265 249 204 208 202 198 202 200 210
325 328 336 336 263 300 284 337 323 114 317 116 193 36 165 188 153 209 157 141 170 165 146 210 182 182 202 199 174 218 151 187 162 190 171 234 50 259 170 208 215 209 210 205 205
321 326 332 358 260 254 313 303 77 54 249 341 68 60 133 237 286 91 185 195 145 125 312 189 192 184 193 169 176 160 101 53 47 110 242 215 182 239 183 210 217 219 217 212 208
320 328 323 277 265 315 331 351 71 198 329 13 342 14 327 310 244 144 188 190 167 143 192 195 221 194 150 159 162 142 109 312 303 202 238 180 190 226 211 205 206 211 217 212 206
323 326 308 240 281 315 24 60 215 276 347 342 339 304 106 350 356 335 147 192 209 106 149 178 222 202 184 189 183 182 151 162 203 208 227 124 228 243 191 212 215 220 217 213 210
326 325 313 276 315 55 58 167 220 348 345 329 313 50 354 349 346 337 0 202 199 178 160 170 241 215 169 160 162 193 194 174 83 270 45 221 298 313 182 205 210 221 216 213 210
332 338 284 312 312 60 68 281 288 3 349 341 355 28 12 336 23 22 29 337 337 7 344 222 227 204 206 125 189 165 152 145 7 194 238 277 248 221 195 202 209 221 216 221 209
27 356 269 333 51 45 95 275 303 338 332 332 344 330 3 359 357 359 2 47 7 335 27 14 124 302 118 201 192 130 180 126 146 159 200 313 255 207 205 215 207 212 210 212 208
32 340 318 351 48 15 342 308 318 338 355 315 267 272 309 6 349 15 49 44 1 324 22 7 112 220 201 230 224 214 186 147 142 224 249 165 246 246 228 201 201 227 225 217 205
349 290 314 43 54 344 304 290 326 346 335 330 321 26 355 26 9 8 14 74 7 10 30 330 359 74 54 301 163 188 216 191 217 88 208 189 242 263 219 207 232 236 243 221 218
27 346 323 26 27 353 329 300 350 342 347 335 330 43 11 11 10 351 355 25 336 5 24 44 79 102 214 307 359 314 295 204 208 223 229 233 269 310 250 235 241 238 236 230 232
30 296 5 309 333 331 322 285 319 354 345 0 347 19 353 327 1 17 356 338 320 17 19 83 5 337 237 279 250 247 261 269 244 225 220 232 235 228 241 222 234 230 243 242 242
306 308 312 286 291 312 327 299 323 352 306 328 325 342 335 279 10 314 19 319 278 343 15 358 253 147 273 274 300 283 266 258 252 255 259 253 248 197 217 219 254 246 234 220 229
244 274 198 322 306 291 268 295 311 332 288 228 317 324 325 344 307 260 221 242 238 294 339 328 211 127 254 304 322 296 255 241 238 208 205 233 224 243 240 213 224 243 230 228 233